owner,sensor,date,latitude,longitude,vertical_datum,wind_speed,wind_to_direction,wind_speed_of_gust,qcFlag 
TCOON,ioos:station:TCOON:013:1,2015-10-01T14:42:00Z,27.4847,-97.3181,0.0,4.4,300.0,4.8,'1111122,1111122,1111122' 
TCOON,ioos:station:TCOON:013:1,2015-10-01T15:24:00Z,27.4847,-97.3181,0.0,3.6,309.0,4.2,'1111122,1111122,1111122' 
TCOON,ioos:station:TCOON:013:1,2015-10-01T16:18:00Z,27.4847,-97.3181,0.0,1.8,2.0,2.5,'1111122,1111122,1111122' 
TCOON,ioos:station:TCOON:013:1,2015-10-01T17:18:00Z,27.4847,-97.3181,0.0,4.0,23.0,4.5,'1111122,1111122,1111122' 
TCOON,ioos:station:TCOON:013:1,2015-10-01T18:24:00Z,27.4847,-97.3181,0.0,2.8,26.0,3.4,'1111122,1111122,1111122' 
TCOON,ioos:station:TCOON:013:1,2015-10-01T19:18:00Z,27.4847,-97.3181,0.0,2.9,60.0,4.1,'1111122,1111122,1111122' 
TCOON,ioos:station:TCOON:013:1,2015-10-01T20:24:00Z,27.4847,-97.3181,0.0,5.0,100.0,5.9,'1111122,1111122,1111122' 
TCOON,ioos:station:TCOON:013:1,2015-10-01T21:24:00Z,27.4847,-97.3181,0.0,4.6,92.0,6.2,'1111122,1111122,1111122' 
TCOON,ioos:station:TCOON:013:1,2015-10-01T22:30:00Z,27.4847,-97.3181,0.0,5.0,96.0,6.3,'1111122,1111122,1111122' 
TCOON,ioos:station:TCOON:013:1,2015-10-01T23:30:00Z,27.4847,-97.3181,0.0,5.0,102.0,6.0,'1111122,1111122,1111122' 
TCOON,ioos:station:TCOON:013:1,2015-10-02T00:12:00Z,27.4847,-97.3181,0.0,4.6,102.0,5.9,'1111122,1111122,1111122' 
TCOON,ioos:station:TCOON:013:1,2015-10-02T01:12:00Z,27.4847,-97.3181,0.0,3.4,109.0,4.5,'1111122,1111122,1111122' 
TCOON,ioos:station:TCOON:013:1,2015-10-02T02:12:00Z,27.4847,-97.3181,0.0,2.6,123.0,3.3,'1111122,1111122,1111122' 
TCOON,ioos:station:TCOON:013:1,2015-10-02T03:18:00Z,27.4847,-97.3181,0.0,2.9,123.0,3.4,'1111122,1111122,1111122' 
TCOON,ioos:station:TCOON:013:1,2015-10-02T04:18:00Z,27.4847,-97.3181,0.0,2.2,112.0,2.6,'1111122,1111122,1111122' 
TCOON,ioos:station:TCOON:013:1,2015-10-02T05:12:00Z,27.4847,-97.3181,0.0,1.7,124.0,2.0,'1111122,1111122,1111122' 
TCOON,ioos:station:TCOON:013:1,2015-10-02T06:18:00Z,27.4847,-97.3181,0.0,1.7,122.0,2.1,'1111122,1111122,1111122' 
TCOON,ioos:station:TCOON:013:1,2015-10-02T07:48:00Z,27.4847,-97.3181,0.0,1.9,280.0,2.3,'1111122,1111122,1111122' 
TCOON,ioos:station:TCOON:013:1,2015-10-02T08:18:00Z,27.4847,-97.3181,0.0,2.3,307.0,2.7,'1111122,1111122,1111122' 
TCOON,ioos:station:TCOON:013:1,2015-10-02T09:12:00Z,27.4847,-97.3181,0.0,2.5,311.0,2.9,'1111122,1111122,1111122' 
TCOON,ioos:station:TCOON:013:1,2015-10-02T10:24:00Z,27.4847,-97.3181,0.0,2.8,324.0,3.3,'1111122,1111122,1111122' 
TCOON,ioos:station:TCOON:013:1,2015-10-02T11:24:00Z,27.4847,-97.3181,0.0,4.0,345.0,4.7,'1111122,1111122,1111122' 
TCOON,ioos:station:TCOON:013:1,2015-10-02T12:18:00Z,27.4847,-97.3181,0.0,4.6,345.0,5.4,'1111122,1111122,1111122' 
TCOON,ioos:station:TCOON:013:1,2015-10-02T13:24:00Z,27.4847,-97.3181,0.0,4.7,354.0,6.2,'1111122,1111122,1111122' 
TCOON,ioos:station:TCOON:013:1,2015-10-02T14:24:00Z,27.4847,-97.3181,0.0,4.4,354.0,5.6,'1111122,1111122,1111122' 
TCOON,ioos:station:TCOON:013:1,2015-10-02T15:18:00Z,27.4847,-97.3181,0.0,5.8,5.0,6.4,'1111122,1111122,1111122' 
TCOON,ioos:station:TCOON:013:1,2015-10-02T16:24:00Z,27.4847,-97.3181,0.0,5.6,22.0,7.0,'1111122,1111122,1111122' 
TCOON,ioos:station:TCOON:013:1,2015-10-02T17:24:00Z,27.4847,-97.3181,0.0,6.5,45.0,7.8,'1111122,1111122,1111122' 
TCOON,ioos:station:TCOON:013:1,2015-10-02T18:30:00Z,27.4847,-97.3181,0.0,6.3,45.0,8.0,'1111122,1111122,1111122' 
TCOON,ioos:station:TCOON:013:1,2015-10-02T19:30:00Z,27.4847,-97.3181,0.0,6.5,47.0,7.7,'1111122,1111122,1111122' 
TCOON,ioos:station:TCOON:013:1,2015-10-02T20:24:00Z,27.4847,-97.3181,0.0,6.5,58.0,8.4,'1111122,1111122,1111122' 
TCOON,ioos:station:TCOON:013:1,2015-10-02T21:18:00Z,27.4847,-97.3181,0.0,5.9,60.0,8.1,'1111122,1111122,1111122' 
TCOON,ioos:station:TCOON:013:1,2015-10-02T22:36:00Z,27.4847,-97.3181,0.0,5.3,72.0,7.8,'1111122,1111122,1111122' 
TCOON,ioos:station:TCOON:013:1,2015-10-02T23:12:00Z,27.4847,-97.3181,0.0,4.4,87.0,5.7,'1111122,1111122,1111122' 
TCOON,ioos:station:TCOON:013:1,2015-10-03T00:12:00Z,27.4847,-97.3181,0.0,3.1,93.0,3.7,'1111122,1111122,1111122' 
TCOON,ioos:station:TCOON:013:1,2015-10-03T01:30:00Z,27.4847,-97.3181,0.0,1.6,101.0,2.4,'1111122,1111122,1111122' 
TCOON,ioos:station:TCOON:013:1,2015-10-03T02:36:00Z,27.4847,-97.3181,0.0,2.0,107.0,2.4,'1111122,1111122,1111122' 
TCOON,ioos:station:TCOON:013:1,2015-10-03T03:24:00Z,27.4847,-97.3181,0.0,2.0,112.0,2.4,'1111122,1111122,1111122' 
TCOON,ioos:station:TCOON:013:1,2015-10-03T04:24:00Z,27.4847,-97.3181,0.0,1.5,129.0,2.0,'1111122,1111122,1111122' 
TCOON,ioos:station:TCOON:013:1,2015-10-03T05:18:00Z,27.4847,-97.3181,0.0,1.2,57.0,1.7,'1111122,1111122,1111122' 
TCOON,ioos:station:TCOON:013:1,2015-10-03T06:18:00Z,27.4847,-97.3181,0.0,2.4,43.0,2.8,'1111122,1111122,1111122' 
TCOON,ioos:station:TCOON:013:1,2015-10-03T07:24:00Z,27.4847,-97.3181,0.0,2.9,44.0,3.6,'1111122,1111122,1111122' 
TCOON,ioos:station:TCOON:013:1,2015-10-03T08:18:00Z,27.4847,-97.3181,0.0,3.6,38.0,4.2,'1111122,1111122,1111122' 
TCOON,ioos:station:TCOON:013:1,2015-10-03T09:12:00Z,27.4847,-97.3181,0.0,5.2,26.0,6.0,'1111122,1111122,1111122' 
TCOON,ioos:station:TCOON:013:1,2015-10-03T10:18:00Z,27.4847,-97.3181,0.0,5.6,25.0,6.5,'1111122,1111122,1111122' 
TCOON,ioos:station:TCOON:013:1,2015-10-03T11:12:00Z,27.4847,-97.3181,0.0,3.6,27.0,4.2,'1111122,1111122,1111122' 
TCOON,ioos:station:TCOON:013:1,2015-10-03T12:18:00Z,27.4847,-97.3181,0.0,3.4,60.0,4.2,'1111122,1111122,1111122' 
TCOON,ioos:station:TCOON:013:1,2015-10-03T13:12:00Z,27.4847,-97.3181,0.0,2.4,60.0,3.2,'1111122,1111122,1111122' 
TCOON,ioos:station:TCOON:013:1,2015-10-03T14:24:00Z,27.4847,-97.3181,0.0,4.3,47.0,5.1,'1111122,1111122,1111122' 
TCOON,ioos:station:TCOON:013:1,2015-10-03T15:18:00Z,27.4847,-97.3181,0.0,3.5,78.0,4.9,'1111122,1111122,1111122' 
TCOON,ioos:station:TCOON:013:1,2015-10-03T16:24:00Z,27.4847,-97.3181,0.0,3.5,80.0,5.2,'1111122,1111122,1111122' 
TCOON,ioos:station:TCOON:013:1,2015-10-03T17:18:00Z,27.4847,-97.3181,0.0,3.2,66.0,4.6,'1111122,1111122,1111122' 
TCOON,ioos:station:TCOON:013:1,2015-10-03T18:30:00Z,27.4847,-97.3181,0.0,3.7,77.0,5.2,'1111122,1111122,1111122' 
TCOON,ioos:station:TCOON:013:1,2015-10-03T19:12:00Z,27.4847,-97.3181,0.0,4.6,58.0,6.3,'1111122,1111122,1111122' 
TCOON,ioos:station:TCOON:013:1,2015-10-03T20:36:00Z,27.4847,-97.3181,0.0,4.2,81.0,5.4,'1111122,1111122,1111122' 
TCOON,ioos:station:TCOON:013:1,2015-10-03T21:30:00Z,27.4847,-97.3181,0.0,4.8,69.0,5.9,'1111122,1111122,1111122' 
TCOON,ioos:station:TCOON:013:1,2015-10-03T22:24:00Z,27.4847,-97.3181,0.0,4.9,71.0,6.1,'1111122,1111122,1111122' 
TCOON,ioos:station:TCOON:013:1,2015-10-03T23:30:00Z,27.4847,-97.3181,0.0,4.3,80.0,5.1,'1111122,1111122,1111122' 
TCOON,ioos:station:TCOON:013:1,2015-10-04T00:18:00Z,27.4847,-97.3181,0.0,3.9,84.0,4.5,'1111122,1111122,1111122' 
TCOON,ioos:station:TCOON:013:1,2015-10-04T01:12:00Z,27.4847,-97.3181,0.0,3.9,78.0,4.6,'1111122,1111122,1111122' 
TCOON,ioos:station:TCOON:013:1,2015-10-04T02:18:00Z,27.4847,-97.3181,0.0,3.8,91.0,5.6,'1111122,1111122,1111122' 
TCOON,ioos:station:TCOON:013:1,2015-10-04T03:18:00Z,27.4847,-97.3181,0.0,3.8,92.0,4.6,'1111122,1111122,1111122' 
TCOON,ioos:station:TCOON:013:1,2015-10-04T04:18:00Z,27.4847,-97.3181,0.0,4.1,91.0,5.1,'1111122,1111122,1111122' 
TCOON,ioos:station:TCOON:013:1,2015-10-04T05:30:00Z,27.4847,-97.3181,0.0,4.6,84.0,5.5,'1111122,1111122,1111122' 
TCOON,ioos:station:TCOON:013:1,2015-10-04T06:24:00Z,27.4847,-97.3181,0.0,4.1,87.0,6.0,'1111122,1111122,1111122' 
TCOON,ioos:station:TCOON:013:1,2015-10-04T07:54:00Z,27.4847,-97.3181,0.0,2.5,110.0,4.0,'1111122,1111122,1111122' 
TCOON,ioos:station:TCOON:013:1,2015-10-04T08:12:00Z,27.4847,-97.3181,0.0,3.2,102.0,3.9,'1111122,1111122,1111122' 
TCOON,ioos:station:TCOON:013:1,2015-10-04T09:18:00Z,27.4847,-97.3181,0.0,3.4,106.0,4.1,'1111122,1111122,1111122' 
TCOON,ioos:station:TCOON:013:1,2015-10-04T10:12:00Z,27.4847,-97.3181,0.0,3.0,103.0,4.0,'1111122,1111122,1111122' 
TCOON,ioos:station:TCOON:013:1,2015-10-04T11:18:00Z,27.4847,-97.3181,0.0,2.3,104.0,3.1,'1111122,1111122,1111122' 
TCOON,ioos:station:TCOON:013:1,2015-10-04T12:12:00Z,27.4847,-97.3181,0.0,2.1,110.0,2.8,'1111122,1111122,1111122' 
TCOON,ioos:station:TCOON:013:1,2015-10-04T13:12:00Z,27.4847,-97.3181,0.0,2.7,85.0,3.2,'1111122,1111122,1111122' 
TCOON,ioos:station:TCOON:013:1,2015-10-04T14:12:00Z,27.4847,-97.3181,0.0,3.2,77.0,4.2,'1111122,1111122,1111122' 
TCOON,ioos:station:TCOON:013:1,2015-10-04T15:12:00Z,27.4847,-97.3181,0.0,3.1,80.0,3.8,'1111122,1111122,1111122' 
TCOON,ioos:station:TCOON:013:1,2015-10-04T16:18:00Z,27.4847,-97.3181,0.0,3.8,109.0,4.8,'1111122,1111122,1111122' 
TCOON,ioos:station:TCOON:013:1,2015-10-04T17:18:00Z,27.4847,-97.3181,0.0,2.7,59.0,4.6,'1111122,1111122,1111122' 
TCOON,ioos:station:TCOON:013:1,2015-10-04T18:18:00Z,27.4847,-97.3181,0.0,2.4,72.0,6.1,'1111122,1111122,1111122' 
TCOON,ioos:station:TCOON:013:1,2015-10-04T19:18:00Z,27.4847,-97.3181,0.0,5.5,46.0,7.9,'1111122,1111122,1111122' 
TCOON,ioos:station:TCOON:013:1,2015-10-04T20:24:00Z,27.4847,-97.3181,0.0,4.8,59.0,7.2,'1111122,1111122,1111122' 
TCOON,ioos:station:TCOON:013:1,2015-10-04T21:24:00Z,27.4847,-97.3181,0.0,4.6,58.0,6.0,'1111122,1111122,1111122' 
TCOON,ioos:station:TCOON:013:1,2015-10-04T22:18:00Z,27.4847,-97.3181,0.0,5.3,79.0,6.4,'1111122,1111122,1111122' 
TCOON,ioos:station:TCOON:013:1,2015-10-04T23:54:00Z,27.4847,-97.3181,0.0,2.9,90.0,4.3,'1111122,1111122,1111122' 
TCOON,ioos:station:TCOON:013:1,2015-10-05T01:18:00Z,27.4847,-97.3181,0.0,2.6,104.0,3.4,'1111122,1111122,1111122' 
TCOON,ioos:station:TCOON:013:1,2015-10-05T02:18:00Z,27.4847,-97.3181,0.0,2.8,105.0,3.6,'1111122,1111122,1111122' 
TCOON,ioos:station:TCOON:013:1,2015-10-05T03:18:00Z,27.4847,-97.3181,0.0,2.9,108.0,3.8,'1111122,1111122,1111122' 
TCOON,ioos:station:TCOON:013:1,2015-10-05T04:30:00Z,27.4847,-97.3181,0.0,1.9,121.0,2.3,'1111122,1111122,1111122' 
TCOON,ioos:station:TCOON:013:1,2015-10-05T05:12:00Z,27.4847,-97.3181,0.0,1.8,119.0,2.2,'1111122,1111122,1111122' 
TCOON,ioos:station:TCOON:013:1,2015-10-05T06:24:00Z,27.4847,-97.3181,0.0,2.0,107.0,2.5,'1111122,1111122,1111122' 
TCOON,ioos:station:TCOON:013:1,2015-10-05T07:48:00Z,27.4847,-97.3181,0.0,2.0,87.0,3.1,'1111122,1111122,1111122' 
TCOON,ioos:station:TCOON:013:1,2015-10-05T08:12:00Z,27.4847,-97.3181,0.0,2.0,111.0,2.3,'1111122,1111122,1111122' 
TCOON,ioos:station:TCOON:013:1,2015-10-05T09:12:00Z,27.4847,-97.3181,0.0,0.9,92.0,1.3,'1111122,1111122,1111122' 
TCOON,ioos:station:TCOON:013:1,2015-10-05T10:18:00Z,27.4847,-97.3181,0.0,1.8,322.0,2.1,'1111122,1111122,1111122' 
TCOON,ioos:station:TCOON:013:1,2015-10-05T11:12:00Z,27.4847,-97.3181,0.0,2.3,325.0,2.5,'1111122,1111122,1111122' 
TCOON,ioos:station:TCOON:013:1,2015-10-05T12:12:00Z,27.4847,-97.3181,0.0,3.6,325.0,4.2,'1111122,1111122,1111122' 
TCOON,ioos:station:TCOON:013:1,2015-10-05T13:18:00Z,27.4847,-97.3181,0.0,5.1,349.0,5.8,'1111122,1111122,1111122' 
TCOON,ioos:station:TCOON:013:1,2015-10-05T14:18:00Z,27.4847,-97.3181,0.0,5.8,14.0,6.6,'1111122,1111122,1111122' 
TCOON,ioos:station:TCOON:013:1,2015-10-05T15:18:00Z,27.4847,-97.3181,0.0,5.5,17.0,6.5,'1111122,1111122,1111122' 
TCOON,ioos:station:TCOON:013:1,2015-10-05T16:12:00Z,27.4847,-97.3181,0.0,4.9,12.0,5.6,'1111122,1111122,1111122' 
TCOON,ioos:station:TCOON:013:1,2015-10-05T17:12:00Z,27.4847,-97.3181,0.0,5.1,16.0,5.6,'1111122,1111122,1111122' 
TCOON,ioos:station:TCOON:013:1,2015-10-05T18:12:00Z,27.4847,-97.3181,0.0,3.4,17.0,4.6,'1111122,1111122,1111122' 
TCOON,ioos:station:TCOON:013:1,2015-10-05T19:12:00Z,27.4847,-97.3181,0.0,2.7,20.0,3.3,'1111122,1111122,1111122' 
TCOON,ioos:station:TCOON:013:1,2015-10-05T20:12:00Z,27.4847,-97.3181,0.0,3.4,49.0,4.3,'1111122,1111122,1111122' 
TCOON,ioos:station:TCOON:013:1,2015-10-05T21:12:00Z,27.4847,-97.3181,0.0,5.0,68.0,6.7,'1111122,1111122,1111122' 
TCOON,ioos:station:TCOON:013:1,2015-10-05T22:30:00Z,27.4847,-97.3181,0.0,5.4,82.0,7.8,'1111122,1111122,1111122' 
TCOON,ioos:station:TCOON:013:1,2015-10-05T23:24:00Z,27.4847,-97.3181,0.0,6.5,68.0,8.0,'1111122,1111122,1111122' 
TCOON,ioos:station:TCOON:013:1,2015-10-06T00:12:00Z,27.4847,-97.3181,0.0,4.2,74.0,5.0,'1111122,1111122,1111122' 
TCOON,ioos:station:TCOON:013:1,2015-10-06T01:24:00Z,27.4847,-97.3181,0.0,4.0,81.0,4.8,'1111122,1111122,1111122' 
TCOON,ioos:station:TCOON:013:1,2015-10-06T02:18:00Z,27.4847,-97.3181,0.0,3.9,70.0,4.5,'1111122,1111122,1111122' 
TCOON,ioos:station:TCOON:013:1,2015-10-06T03:12:00Z,27.4847,-97.3181,0.0,3.1,72.0,3.9,'1111122,1111122,1111122' 
TCOON,ioos:station:TCOON:013:1,2015-10-06T04:24:00Z,27.4847,-97.3181,0.0,4.1,72.0,4.4,'1111122,1111122,1111122' 
TCOON,ioos:station:TCOON:013:1,2015-10-06T05:24:00Z,27.4847,-97.3181,0.0,2.5,75.0,3.4,'1111122,1111122,1111122' 
TCOON,ioos:station:TCOON:013:1,2015-10-06T06:24:00Z,27.4847,-97.3181,0.0,1.9,59.0,2.4,'1111122,1111122,1111122' 
TCOON,ioos:station:TCOON:013:1,2015-10-06T07:48:00Z,27.4847,-97.3181,0.0,2.8,303.0,3.2,'1111122,1111122,1111122' 
TCOON,ioos:station:TCOON:013:1,2015-10-06T08:12:00Z,27.4847,-97.3181,0.0,2.9,317.0,3.1,'1111122,1111122,1111122' 
TCOON,ioos:station:TCOON:013:1,2015-10-06T09:12:00Z,27.4847,-97.3181,0.0,3.4,323.0,4.0,'1111122,1111122,1111122' 
TCOON,ioos:station:TCOON:013:1,2015-10-06T10:24:00Z,27.4847,-97.3181,0.0,3.7,334.0,4.0,'1111122,1111122,1111122' 
TCOON,ioos:station:TCOON:013:1,2015-10-06T11:30:00Z,27.4847,-97.3181,0.0,4.6,345.0,5.0,'1111122,1111122,1111122' 
TCOON,ioos:station:TCOON:013:1,2015-10-06T12:24:00Z,27.4847,-97.3181,0.0,3.9,335.0,4.4,'1111122,1111122,1111122' 
TCOON,ioos:station:TCOON:013:1,2015-10-06T13:18:00Z,27.4847,-97.3181,0.0,3.5,333.0,4.2,'1111122,1111122,1111122' 
TCOON,ioos:station:TCOON:013:1,2015-10-06T14:12:00Z,27.4847,-97.3181,0.0,3.8,337.0,4.5,'1111122,1111122,1111122' 
TCOON,ioos:station:TCOON:013:1,2015-10-06T15:12:00Z,27.4847,-97.3181,0.0,3.5,340.0,4.0,'1111122,1111122,1111122' 
TCOON,ioos:station:TCOON:013:1,2015-10-06T16:18:00Z,27.4847,-97.3181,0.0,4.4,16.0,5.0,'1111122,1111122,1111122' 
TCOON,ioos:station:TCOON:013:1,2015-10-06T17:12:00Z,27.4847,-97.3181,0.0,4.1,2.0,4.4,'1111122,1111122,1111122' 
TCOON,ioos:station:TCOON:013:1,2015-10-06T18:12:00Z,27.4847,-97.3181,0.0,3.2,358.0,4.2,'1111122,1111122,1111122' 
TCOON,ioos:station:TCOON:013:1,2015-10-06T19:12:00Z,27.4847,-97.3181,0.0,2.8,17.0,3.1,'1111122,1111122,1111122' 
TCOON,ioos:station:TCOON:013:1,2015-10-06T20:12:00Z,27.4847,-97.3181,0.0,3.2,66.0,5.8,'1111122,1111122,1111122' 
TCOON,ioos:station:TCOON:013:1,2015-10-06T21:12:00Z,27.4847,-97.3181,0.0,4.5,78.0,5.2,'1111122,1111122,1111122' 
TCOON,ioos:station:TCOON:013:1,2015-10-06T22:42:00Z,27.4847,-97.3181,0.0,3.9,99.0,4.3,'1111122,1111122,1111122' 
TCOON,ioos:station:TCOON:013:1,2015-10-06T23:24:00Z,27.4847,-97.3181,0.0,3.3,95.0,3.9,'1111122,1111122,1111122' 
TCOON,ioos:station:TCOON:013:1,2015-10-07T00:12:00Z,27.4847,-97.3181,0.0,3.3,99.0,4.2,'1111122,1111122,1111122' 
TCOON,ioos:station:TCOON:013:1,2015-10-07T01:12:00Z,27.4847,-97.3181,0.0,3.1,107.0,4.0,'1111122,1111122,1111122' 
TCOON,ioos:station:TCOON:013:1,2015-10-07T02:12:00Z,27.4847,-97.3181,0.0,2.0,124.0,2.4,'1111122,1111122,1111122' 
TCOON,ioos:station:TCOON:013:1,2015-10-07T03:12:00Z,27.4847,-97.3181,0.0,2.3,121.0,2.8,'1111122,1111122,1111122' 
TCOON,ioos:station:TCOON:013:1,2015-10-07T04:12:00Z,27.4847,-97.3181,0.0,2.6,121.0,3.1,'1111122,1111122,1111122' 
TCOON,ioos:station:TCOON:013:1,2015-10-07T05:12:00Z,27.4847,-97.3181,0.0,2.0,140.0,2.4,'1111122,1111122,1111122' 
TCOON,ioos:station:TCOON:013:1,2015-10-07T06:24:00Z,27.4847,-97.3181,0.0,2.0,124.0,2.4,'1111122,1111122,1111122' 
TCOON,ioos:station:TCOON:013:1,2015-10-07T07:30:00Z,27.4847,-97.3181,0.0,2.2,137.0,2.4,'1111122,1111122,1111122' 
TCOON,ioos:station:TCOON:013:1,2015-10-07T08:24:00Z,27.4847,-97.3181,0.0,2.0,139.0,2.4,'1111122,1111122,1111122' 
TCOON,ioos:station:TCOON:013:1,2015-10-07T09:24:00Z,27.4847,-97.3181,0.0,1.6,137.0,1.9,'1111122,1111122,1111122' 
TCOON,ioos:station:TCOON:013:1,2015-10-07T10:18:00Z,27.4847,-97.3181,0.0,1.9,133.0,2.4,'1111122,1111122,1111122' 
TCOON,ioos:station:TCOON:013:1,2015-10-07T11:18:00Z,27.4847,-97.3181,0.0,0.5,267.0,0.8,'1111122,1111122,1111122' 
TCOON,ioos:station:TCOON:013:1,2015-10-07T12:18:00Z,27.4847,-97.3181,0.0,2.2,338.0,2.3,'1111122,1111122,1111122' 
TCOON,ioos:station:TCOON:013:1,2015-10-07T13:24:00Z,27.4847,-97.3181,0.0,2.3,357.0,2.7,'1111122,1111122,1111122' 
TCOON,ioos:station:TCOON:013:1,2015-10-07T14:18:00Z,27.4847,-97.3181,0.0,2.5,356.0,2.8,'1111122,1111122,1111122' 
TCOON,ioos:station:TCOON:013:1,2015-10-07T19:36:00Z,27.4847,-97.3181,0.0,4.3,71.0,6.8,'1111122,1111122,1111122' 
TCOON,ioos:station:TCOON:013:1,2015-10-07T20:18:00Z,27.4847,-97.3181,0.0,5.5,98.0,7.0,'1111122,1111122,1111122' 
TCOON,ioos:station:TCOON:013:1,2015-10-07T21:12:00Z,27.4847,-97.3181,0.0,5.6,86.0,7.1,'1111122,1111122,1111122' 
TCOON,ioos:station:TCOON:013:1,2015-10-07T22:30:00Z,27.4847,-97.3181,0.0,5.9,90.0,8.0,'1111122,1111122,1111122' 
TCOON,ioos:station:TCOON:013:1,2015-10-07T23:24:00Z,27.4847,-97.3181,0.0,5.7,92.0,7.4,'1111122,1111122,1111122' 
TCOON,ioos:station:TCOON:013:1,2015-10-08T00:12:00Z,27.4847,-97.3181,0.0,5.8,98.0,6.9,'1111122,1111122,1111122' 
TCOON,ioos:station:TCOON:013:1,2015-10-08T01:12:00Z,27.4847,-97.3181,0.0,5.5,100.0,7.1,'1111122,1111122,1111122' 
TCOON,ioos:station:TCOON:013:1,2015-10-08T02:12:00Z,27.4847,-97.3181,0.0,5.0,105.0,7.9,'1111122,1111122,1111122' 
TCOON,ioos:station:TCOON:013:1,2015-10-08T03:12:00Z,27.4847,-97.3181,0.0,5.7,112.0,7.4,'1111122,1111122,1111122' 
TCOON,ioos:station:TCOON:013:1,2015-10-08T04:12:00Z,27.4847,-97.3181,0.0,5.9,124.0,7.5,'1111122,1111122,1111122' 
TCOON,ioos:station:TCOON:013:1,2015-10-08T05:18:00Z,27.4847,-97.3181,0.0,4.7,123.0,6.2,'1111122,1111122,1111122' 
TCOON,ioos:station:TCOON:013:1,2015-10-08T06:12:00Z,27.4847,-97.3181,0.0,5.5,123.0,6.7,'1111122,1111122,1111122' 
TCOON,ioos:station:TCOON:013:1,2015-10-08T08:18:00Z,27.4847,-97.3181,0.0,3.4,123.0,4.4,'1111122,1111122,1111122' 
TCOON,ioos:station:TCOON:013:1,2015-10-08T09:12:00Z,27.4847,-97.3181,0.0,3.2,129.0,4.1,'1111122,1111122,1111122' 
TCOON,ioos:station:TCOON:013:1,2015-10-08T10:18:00Z,27.4847,-97.3181,0.0,2.5,144.0,2.8,'1111122,1111122,1111122' 
TCOON,ioos:station:TCOON:013:1,2015-10-08T11:18:00Z,27.4847,-97.3181,0.0,2.3,144.0,3.2,'1111122,1111122,1111122' 
TCOON,ioos:station:TCOON:013:1,2015-10-08T12:18:00Z,27.4847,-97.3181,0.0,4.3,109.0,5.8,'1111122,1111122,1111122' 
TCOON,ioos:station:TCOON:013:1,2015-10-08T13:18:00Z,27.4847,-97.3181,0.0,4.6,90.0,5.5,'1111122,1111122,1111122' 
TCOON,ioos:station:TCOON:013:1,2015-10-08T14:24:00Z,27.4847,-97.3181,0.0,3.6,91.0,5.8,'1111122,1111122,1111122' 
TCOON,ioos:station:TCOON:013:1,2015-10-08T15:12:00Z,27.4847,-97.3181,0.0,3.8,109.0,5.6,'1111122,1111122,1111122' 
TCOON,ioos:station:TCOON:013:1,2015-10-08T16:24:00Z,27.4847,-97.3181,0.0,4.9,105.0,6.2,'1111122,1111122,1111122' 
TCOON,ioos:station:TCOON:013:1,2015-10-08T17:12:00Z,27.4847,-97.3181,0.0,5.1,101.0,6.1,'1111122,1111122,1111122' 
TCOON,ioos:station:TCOON:013:1,2015-10-08T18:18:00Z,27.4847,-97.3181,0.0,5.4,115.0,7.8,'1111122,1111122,1111122' 
TCOON,ioos:station:TCOON:013:1,2015-10-08T19:24:00Z,27.4847,-97.3181,0.0,4.7,112.0,7.8,'1111122,1111122,1111122' 
TCOON,ioos:station:TCOON:013:1,2015-10-08T20:24:00Z,27.4847,-97.3181,0.0,5.6,114.0,7.5,'1111122,1111122,1111122' 
TCOON,ioos:station:TCOON:013:1,2015-10-08T21:24:00Z,27.4847,-97.3181,0.0,6.4,110.0,7.7,'1111122,1111122,1111122' 
TCOON,ioos:station:TCOON:013:1,2015-10-08T22:24:00Z,27.4847,-97.3181,0.0,6.1,116.0,7.8,'1111122,1111122,1111122' 
TCOON,ioos:station:TCOON:013:1,2015-10-08T23:18:00Z,27.4847,-97.3181,0.0,6.3,112.0,7.8,'1111122,1111122,1111122' 
TCOON,ioos:station:TCOON:013:1,2015-10-09T00:18:00Z,27.4847,-97.3181,0.0,4.3,104.0,6.5,'1111122,1111122,1111122' 
TCOON,ioos:station:TCOON:013:1,2015-10-09T01:12:00Z,27.4847,-97.3181,0.0,5.5,114.0,7.1,'1111122,1111122,1111122' 
TCOON,ioos:station:TCOON:013:1,2015-10-09T02:18:00Z,27.4847,-97.3181,0.0,4.6,115.0,6.5,'1111122,1111122,1111122' 
TCOON,ioos:station:TCOON:013:1,2015-10-09T03:12:00Z,27.4847,-97.3181,0.0,5.1,113.0,6.3,'1111122,1111122,1111122' 
TCOON,ioos:station:TCOON:013:1,2015-10-09T04:18:00Z,27.4847,-97.3181,0.0,4.9,109.0,6.9,'1111122,1111122,1111122' 
TCOON,ioos:station:TCOON:013:1,2015-10-09T05:18:00Z,27.4847,-97.3181,0.0,4.6,110.0,5.7,'1111122,1111122,1111122' 
TCOON,ioos:station:TCOON:013:1,2015-10-09T06:24:00Z,27.4847,-97.3181,0.0,3.4,105.0,4.0,'1111122,1111122,1111122' 
TCOON,ioos:station:TCOON:013:1,2015-10-09T07:54:00Z,27.4847,-97.3181,0.0,2.8,91.0,3.4,'1111122,1111122,1111122' 
TCOON,ioos:station:TCOON:013:1,2015-10-09T08:18:00Z,27.4847,-97.3181,0.0,2.6,94.0,3.1,'1111122,1111122,1111122' 
TCOON,ioos:station:TCOON:013:1,2015-10-09T09:18:00Z,27.4847,-97.3181,0.0,2.7,103.0,3.4,'1111122,1111122,1111122' 
TCOON,ioos:station:TCOON:013:1,2015-10-09T10:12:00Z,27.4847,-97.3181,0.0,2.5,100.0,3.0,'1111122,1111122,1111122' 
TCOON,ioos:station:TCOON:013:1,2015-10-09T11:18:00Z,27.4847,-97.3181,0.0,2.4,104.0,3.8,'1111122,1111122,1111122' 
TCOON,ioos:station:TCOON:013:1,2015-10-09T12:12:00Z,27.4847,-97.3181,0.0,3.3,105.0,4.2,'1111122,1111122,1111122' 
TCOON,ioos:station:TCOON:013:1,2015-10-09T13:12:00Z,27.4847,-97.3181,0.0,2.6,92.0,3.1,'1111122,1111122,1111122' 
TCOON,ioos:station:TCOON:013:1,2015-10-09T14:12:00Z,27.4847,-97.3181,0.0,3.1,90.0,3.4,'1111122,1111122,1111122' 
TCOON,ioos:station:TCOON:013:1,2015-10-09T15:24:00Z,27.4847,-97.3181,0.0,4.2,77.0,5.5,'1111122,1111122,1111122' 
TCOON,ioos:station:TCOON:013:1,2015-10-09T16:24:00Z,27.4847,-97.3181,0.0,7.3,7.0,9.0,'1111122,1111122,1111122' 
TCOON,ioos:station:TCOON:013:1,2015-10-09T17:18:00Z,27.4847,-97.3181,0.0,9.5,8.0,12.3,'1111122,1111122,1111122' 
TCOON,ioos:station:TCOON:013:1,2015-10-09T18:18:00Z,27.4847,-97.3181,0.0,7.0,354.0,9.0,'1111122,1111122,1111122' 
TCOON,ioos:station:TCOON:013:1,2015-10-09T19:24:00Z,27.4847,-97.3181,0.0,5.2,4.0,6.2,'1111122,1111122,1111122' 
TCOON,ioos:station:TCOON:013:1,2015-10-09T20:24:00Z,27.4847,-97.3181,0.0,6.4,68.0,8.1,'1111122,1111122,1111122' 
TCOON,ioos:station:TCOON:013:1,2015-10-09T21:24:00Z,27.4847,-97.3181,0.0,4.5,59.0,6.1,'1111122,1111122,1111122' 
TCOON,ioos:station:TCOON:013:1,2015-10-09T22:36:00Z,27.4847,-97.3181,0.0,5.5,15.0,6.2,'1111122,1111122,1111122' 
TCOON,ioos:station:TCOON:013:1,2015-10-09T23:24:00Z,27.4847,-97.3181,0.0,5.0,41.0,6.5,'1111122,1111122,1111122' 
TCOON,ioos:station:TCOON:013:1,2015-10-11T01:54:00Z,27.4847,-97.3181,0.0,1.7,116.0,2.0,'1111122,1111122,1111122' 
TCOON,ioos:station:TCOON:013:1,2015-10-11T02:18:00Z,27.4847,-97.3181,0.0,1.5,129.0,2.1,'1111122,1111122,1111122' 
TCOON,ioos:station:TCOON:013:1,2015-10-11T03:18:00Z,27.4847,-97.3181,0.0,2.1,127.0,2.4,'1111122,1111122,1111122' 
TCOON,ioos:station:TCOON:013:1,2015-10-11T04:18:00Z,27.4847,-97.3181,0.0,2.5,148.0,2.9,'1111122,1111122,1111122' 
TCOON,ioos:station:TCOON:013:1,2015-10-11T05:36:00Z,27.4847,-97.3181,0.0,2.1,166.0,2.4,'1111122,1111122,1111122' 
TCOON,ioos:station:TCOON:013:1,2015-10-11T06:18:00Z,27.4847,-97.3181,0.0,2.2,166.0,2.6,'1111122,1111122,1111122' 
TCOON,ioos:station:TCOON:013:1,2015-10-11T07:54:00Z,27.4847,-97.3181,0.0,1.9,169.0,2.3,'1111122,1111122,1111122' 
TCOON,ioos:station:TCOON:013:1,2015-10-11T08:12:00Z,27.4847,-97.3181,0.0,1.8,166.0,2.1,'1111122,1111122,1111122' 
TCOON,ioos:station:TCOON:013:1,2015-10-11T09:12:00Z,27.4847,-97.3181,0.0,1.3,165.0,1.5,'1111122,1111122,1111122' 
TCOON,ioos:station:TCOON:013:1,2015-10-11T10:12:00Z,27.4847,-97.3181,0.0,2.1,278.0,2.4,'1111122,1111122,1111122' 
TCOON,ioos:station:TCOON:013:1,2015-10-11T11:12:00Z,27.4847,-97.3181,0.0,3.0,277.0,3.5,'1111122,1111122,1111122' 
TCOON,ioos:station:TCOON:013:1,2015-10-11T12:12:00Z,27.4847,-97.3181,0.0,2.6,273.0,3.0,'1111122,1111122,1111122' 
TCOON,ioos:station:TCOON:013:1,2015-10-11T13:12:00Z,27.4847,-97.3181,0.0,1.7,258.0,2.1,'1111122,1111122,1111122' 
TCOON,ioos:station:TCOON:013:1,2015-10-11T14:12:00Z,27.4847,-97.3181,0.0,1.2,283.0,1.8,'1111122,1111122,1111122' 